Location: Geelbroek
(52.9503°N, 6.5712°E)
Time: 19:30:51
(UTC+00:00)

NOSS 3-3 (C) - Pass Details

Date: 15 May 2026
Orbit: 697 x 1516 km, 63.4° (Epoch: 11 January)

Event Time Altitude Azimuth Distance (km) Brightness Sun altitude
Rises 20:29:47 0° 219° (SW) 3,189 6.6 -8.2°
Reaches altitude 10° 20:32:00 10° 218° (SW) 2,332 5.9 -8.4°
Maximum altitude 20:37:19 78° 133° (SE) 902 3.7 -8.9°
Drops below altitude 10° 20:43:48 10° 48° (NE) 2,820 6.5 -9.5°
Sets 20:46:42 0° 48° (NE) 3,909 7.2 -9.8°
